Albion, NE

8:00 AM CST on December 11, 2016 (GMT -0600)
Albion Municipal

Weather History for KBVN - March, 2014

Change the Weather History Date:

Sunday, March 9, 2014

  Actual Average (KOFK) Record (KOFK)
Temperature  
Mean Temperature 50 °F -  
Max Temperature 73 °F 45 °F 76 °F (1904)
Min Temperature 28 °F 23 °F -10 °F (1912)
Degree Days  
Heating Degree Days 14    
Moisture  
Dew Point 22 °F    
Average Humidity 41    
Maximum Humidity 86    
Minimum Humidity 12    
Precipitation  
Precipitation 0.00 in - - ()
Sea Level Pressure  
Sea Level Pressure 29.92 in    
Wind  
Wind Speed 8 mph (SW)    
Max Wind Speed 21 mph    
Max Gust Speed 29 mph    
Visibility 10 miles    
Events      
Averages and records for this station are not official NWS values.
T = Trace of Precipitation, MM = Missing Value Source: NWS Daily Summary

Daily Weather History Graph

Daily Weather History Graph

Search for Another Location

Airport or City:

Trip Planner

Search our weather history database for the weather conditions in past years. The results will help you decide how hot, cold, wet, or windy it might be!

Date:

Astronomy

Mar. 09, 2014 Rise Set
Actual Time 7:54 AM CDT 7:32 PM CDT
Civil Twilight 7:26 AM CDT 7:59 PM CDT
Nautical Twilight 6:54 AM CDT 8:32 PM CDT
Astronomical Twilight 6:21 AM CDT 9:04 PM CDT
Moon 1:22 PM CDT (3/9) 3:24 AM CDT (3/9)
Length of Visible Light 12h 33m
Length of Day
11h 38m
First Quarter, 61% of the Moon is Illuminated
Mar 9
First Quarter
Mar 16
Full
Mar 23
Last Quarter
Mar 30
New
Apr 7
First Quarter

Hourly Weather History & Observations

Time (CDT) Temp. Windchill Dew Point Humidity Pressure Visibility Wind Dir Wind Speed Gust Speed Precip Events Conditions
12:18 AM 30.2 °F 23.4 °F 21.2 °F 69% 30.17 in 10.0 mi South 6.9 mph - N/A   Clear
12:56 AM 30.2 °F 25.4 °F 21.2 °F 69% 30.17 in 10.0 mi SSE 4.6 mph - N/A   Clear
1:16 AM 30.2 °F 25.4 °F 21.2 °F 69% 30.16 in 10.0 mi SE 4.6 mph - N/A   Scattered Clouds
1:36 AM 30.2 °F 25.4 °F 23.0 °F 75% 30.15 in 10.0 mi SE 4.6 mph - N/A   Clear
1:56 AM 30.2 °F 25.4 °F 23.0 °F 75% 30.13 in 10.0 mi SE 4.6 mph - N/A   Clear
3:16 AM 30.2 °F 25.4 °F 23.0 °F 75% 30.12 in 10.0 mi SSE 4.6 mph - N/A   Scattered Clouds
3:36 AM 30.2 °F 24.3 °F 24.8 °F 80% 30.11 in 10.0 mi SE 5.8 mph - N/A   Clear
3:58 AM 30.2 °F 25.4 °F 24.8 °F 80% 30.09 in 10.0 mi SE 4.6 mph - N/A   Clear
4:18 AM 30.2 °F 25.4 °F 24.8 °F 80% 30.08 in 10.0 mi SE 4.6 mph - N/A   Clear
4:38 AM 30.2 °F - 24.8 °F 80% 30.09 in 10.0 mi Calm Calm - N/A   Clear
4:58 AM 30.2 °F 25.4 °F 24.8 °F 80% 30.08 in 10.0 mi SE 4.6 mph - N/A   Clear
5:36 AM 28.4 °F 22.2 °F 23.0 °F 80% 30.07 in 10.0 mi SSE 5.8 mph - N/A   Clear
5:58 AM 30.2 °F 26.7 °F 24.8 °F 80% 30.07 in 10.0 mi SSE 3.5 mph - N/A   Clear
6:16 AM 28.4 °F 22.2 °F 23.0 °F 80% 30.06 in 10.0 mi SSE 5.8 mph - N/A   Clear
6:36 AM 28.4 °F 23.3 °F 24.8 °F 86% 30.05 in 10.0 mi SSE 4.6 mph - N/A   Clear
6:56 AM 30.2 °F 25.4 °F 24.8 °F 80% 30.04 in 10.0 mi SSE 4.6 mph - N/A   Clear
7:18 AM 30.2 °F 24.3 °F 24.8 °F 80% 30.04 in 10.0 mi SE 5.8 mph - N/A   Clear
7:36 AM 32.0 °F 28.7 °F 26.6 °F 80% 30.03 in 10.0 mi ESE 3.5 mph - N/A   Clear
7:56 AM 33.8 °F 29.6 °F 26.6 °F 75% 30.02 in 10.0 mi SSE 4.6 mph - N/A   Clear
8:36 AM 39.2 °F 31.6 °F 28.4 °F 65% 30.00 in 10.0 mi SW 12.7 mph 17.3 mph N/A   Clear
8:56 AM 39.2 °F 30.5 °F 28.4 °F 65% 29.99 in 10.0 mi SW 16.1 mph 20.7 mph N/A   Clear
9:36 AM 42.8 °F 35.1 °F 28.4 °F 57% 29.98 in 10.0 mi SW 16.1 mph 21.9 mph N/A   Clear
9:58 AM 44.6 °F 37.2 °F 28.4 °F 53% 29.97 in 10.0 mi SW 17.3 mph 24.2 mph N/A   Clear
10:16 AM 46.4 °F 39.2 °F 28.4 °F 50% 29.96 in 10.0 mi SW 18.4 mph 25.3 mph N/A   Clear
10:36 AM 50.0 °F - 28.4 °F 43% 29.93 in 10.0 mi SW 20.7 mph 27.6 mph N/A   Clear
10:56 AM 53.6 °F - 28.4 °F 38% 29.93 in 10.0 mi SW 18.4 mph 28.8 mph N/A   Clear
11:16 AM 55.4 °F - 28.4 °F 36% 29.93 in 10.0 mi SW 18.4 mph 26.5 mph N/A   Clear
11:36 AM 57.2 °F - 26.6 °F 31% 29.92 in 10.0 mi WSW 19.6 mph 28.8 mph N/A   Clear
11:56 AM 60.8 °F - 26.6 °F 27% 29.91 in 10.0 mi WSW 18.4 mph 27.6 mph N/A   Clear
12:16 PM 60.8 °F - 26.6 °F 27% 29.91 in 10.0 mi WSW 18.4 mph 24.2 mph N/A   Clear
12:36 PM 62.6 °F - 26.6 °F 26% 29.90 in 10.0 mi WSW 17.3 mph 25.3 mph N/A   Clear
12:56 PM 64.4 °F - 24.8 °F 22% 29.89 in 10.0 mi West 16.1 mph 24.2 mph N/A   Clear
1:18 PM 66.2 °F - 23.0 °F 19% 29.88 in 10.0 mi WSW 20.7 mph 24.2 mph N/A   Clear
1:36 PM 68.0 °F - 21.2 °F 17% 29.88 in 10.0 mi West 15.0 mph 27.6 mph N/A   Clear
1:58 PM 68.0 °F - 21.2 °F 17% 29.87 in 10.0 mi West 15.0 mph 26.5 mph N/A   Clear
2:16 PM 69.8 °F - 19.4 °F 15% 29.86 in 10.0 mi WSW 17.3 mph 24.2 mph N/A   Clear
2:38 PM 69.8 °F - 19.4 °F 15% 29.85 in 10.0 mi West 13.8 mph 23.0 mph N/A   Clear
2:58 PM 71.6 °F - 19.4 °F 14% 29.83 in 10.0 mi West 15.0 mph 20.7 mph N/A   Clear
3:16 PM 71.6 °F - 19.4 °F 14% 29.83 in 10.0 mi West 13.8 mph 24.2 mph N/A   Clear
3:36 PM 73.4 °F - 19.4 °F 13% 29.82 in 10.0 mi West 10.4 mph 18.4 mph N/A   Clear
3:56 PM 73.4 °F - 19.4 °F 13% 29.82 in 10.0 mi West 16.1 mph 21.9 mph N/A   Clear
4:16 PM 73.4 °F - 19.4 °F 13% 29.82 in 10.0 mi West 10.4 mph 17.3 mph N/A   Clear
4:38 PM 73.4 °F - 17.6 °F 12% 29.82 in 10.0 mi West 12.7 mph 20.7 mph N/A   Clear
4:56 PM 73.4 °F - 17.6 °F 12% 29.82 in 10.0 mi WNW 13.8 mph 21.9 mph N/A   Clear
5:16 PM 73.4 °F - 17.6 °F 12% 29.82 in 10.0 mi West 12.7 mph - N/A   Clear
5:38 PM 73.4 °F - 17.6 °F 12% 29.81 in 10.0 mi West 6.9 mph - N/A   Clear
5:56 PM 73.4 °F - 17.6 °F 12% 29.81 in 10.0 mi West 9.2 mph - N/A   Clear
6:16 PM 73.4 °F - 17.6 °F 12% 29.80 in 10.0 mi West 8.1 mph - N/A   Clear
6:38 PM 71.6 °F - 17.6 °F 13% 29.80 in 10.0 mi WNW 5.8 mph - N/A   Clear
6:56 PM 69.8 °F - 17.6 °F 14% 29.80 in 10.0 mi West 3.5 mph - N/A   Clear
7:16 PM 66.2 °F - 17.6 °F 15% 29.81 in 10.0 mi Calm Calm - N/A   Clear
7:36 PM 62.6 °F - 17.6 °F 18% 29.81 in 10.0 mi Calm Calm - N/A   Clear
7:56 PM 59.0 °F - 19.4 °F 22% 29.81 in 10.0 mi WNW 4.6 mph - N/A   Clear
8:16 PM 55.4 °F - 19.4 °F 25% 29.81 in 10.0 mi Calm Calm - N/A   Clear
8:36 PM 48.2 °F - 19.4 °F 32% 29.81 in 10.0 mi Calm Calm - N/A   Clear
8:56 PM 48.2 °F - 19.4 °F 32% 29.82 in 10.0 mi Calm Calm - N/A   Clear
9:16 PM 50.0 °F - 19.4 °F 30% 29.81 in 10.0 mi Calm Calm - N/A   Clear
9:56 PM 53.6 °F - 19.4 °F 26% 29.81 in 10.0 mi Calm Calm - N/A   Clear
10:16 PM 46.4 °F - 19.4 °F 34% 29.81 in 10.0 mi Calm Calm - N/A   Clear
10:56 PM 48.2 °F - 19.4 °F 32% 29.81 in 10.0 mi Calm Calm - N/A   Clear
11:16 PM 48.2 °F - 21.2 °F 34% 29.81 in 10.0 mi Calm Calm - N/A   Clear
11:36 PM 48.2 °F - 21.2 °F 34% 29.80 in 10.0 mi Calm Calm - N/A   Clear
12:16 AM 55.4 °F - 19.4 °F 25% 29.79 in 10.0 mi West 3.5 mph - N/A   Clear
12:38 AM 53.6 °F - 19.4 °F 26% 29.78 in 10.0 mi NW 3.5 mph - N/A   Clear
12:56 AM 53.6 °F - 19.4 °F 26% 29.79 in 10.0 mi NNW 5.8 mph - N/A   Clear